FW8256 Weather Reports


Display with metric or nautical units.
time (UTC)temp
F
wind
direction
speed
MPH
gust
MPH
rain 1hr
in
rain 24hr
in
rain mn
in
humidity
%
barometer
mb
20260903190031 96 167 2.0 8.0 0.00 0.00 0.00 50 1008.5
20260903184528 95 136 2.0 10.0 0.00 0.00 0.00 52 1008.7
20260903183023 95 126 3.0 9.0 0.00 0.00 0.00 51 1009.0
20260903181520 94 281 3.0 10.0 0.00 0.00 0.00 52 1009.2
20260903180018 93 166 4.0 9.0 0.00 0.00 0.00 54 1009.3
20260903174515 92 168 3.0 9.0 0.00 0.00 0.00 54 1009.7
20260903173011 92 136 3.0 10.0 0.00 0.00 0.00 56 1009.9
20260903171509 91 149 4.0 9.0 0.00 0.00 0.00 57 1010.0
20260903170012 90 175 4.0 8.0 0.00 0.00 0.00 59 1010.1
20260903164503 89 188 3.0 9.0 0.00 0.00 0.00 61 1010.2
20260903163102 88 144 4.0 8.0 0.00 0.00 0.00 62 1010.3
20260903161603 87 140 3.0 7.0 0.00 0.00 0.00 64 1010.4
20260903160056 86 105 3.0 8.0 0.00 0.00 0.00 66 1010.3
20260903154555 86 101 2.0 8.0 0.00 0.00 0.00 67 1010.4
20260903153054 85 169 4.0 7.0 0.00 0.00 0.00 67 1010.5
20260903151553 83 121 3.0 11.0 0.00 0.00 0.00 70 1010.6
20260903150108 83 145 3.0 7.0 0.00 0.00 0.00 70 1010.7
20260903144556 82 132 2.0 8.0 0.00 0.00 0.00 72 1010.9
20260903143051 81 153 4.0 10.0 0.00 0.00 0.00 73 1010.9
20260903141549 80 241 3.0 9.0 0.00 0.00 0.00 74 1011.0
20260903140049 80 125 4.0 10.0 0.00 0.00 0.00 74 1011.1
20260903134601 79 135 2.0 7.0 0.00 0.00 0.00 75 1011.2
20260903133048 78 179 2.0 8.0 0.00 0.00 0.00 75 1011.2
20260903131546 78 165 3.0 8.0 0.00 0.00 0.00 76 1011.1
20260903130045 77 151 1.0 7.0 0.00 0.00 0.00 77 1011.1
20260903124553 76 360 1.0 6.0 0.00 0.00 0.00 79 1010.9
20260903123041 76 360 1.0 8.0 0.00 0.00 0.00 79 1010.6
20260903121540 76 360 2.0 6.0 0.00 0.00 0.00 79 1010.5
20260903120042 76 360 0.0 6.0 0.00 0.00 0.00 78 1010.4
20260903114540 76 360 1.0 5.0 0.00 0.00 0.00 78 1010.3
20260903113034 76 360 2.0 5.0 0.00 0.00 0.00 78 1010.1
20260903111534 77 360 2.0 6.0 0.00 0.00 0.00 77 1010.1
20260903110031 77 360 1.0 8.0 0.00 0.00 0.00 76 1010.1
20260903104529 77 360 1.0 4.0 0.00 0.00 0.00 76 1010.1
20260903103027 78 360 1.0 8.0 0.00 0.00 0.00 75 1010.0
20260903101524 78 360 2.0 6.0 0.00 0.00 0.00 74 1009.8
20260903100029 79 360 2.0 5.0 0.00 0.00 0.00 73 1009.9
20260903094521 79 360 1.0 6.0 0.00 0.00 0.00 72 1009.8
20260903093019 80 360 3.0 8.0 0.00 0.00 0.00 72 1009.8
20260903091519 80 360 2.0 9.0 0.00 0.00 0.00 71 1009.8
20260903090019 80 360 3.0 8.0 0.00 0.00 0.00 70 1009.9
20260903084532 81 360 3.0 9.0 0.00 0.00 0.00 69 1009.8
20260903083012 81 360 1.0 9.0 0.00 0.00 0.00 68 1009.8
20260903081512 81 360 2.0 6.0 0.00 0.00 0.00 68 1009.7
20260903080010 82 360 2.0 6.0 0.00 0.00 0.00 67 1009.8
20260903074507 82 360 2.0 9.0 0.00 0.00 0.00 66 1009.8
20260903073007 83 360 3.0 9.0 0.00 0.00 0.00 65 1009.8
20260903071503 83 360 2.0 12.0 0.00 0.00 0.00 64 1009.8
20260903070001 84 360 3.0 13.0 0.00 0.00 0.00 63 1009.9
20260903064559 84 360 4.0 13.0 0.00 0.00 0.00 63 1009.8
20260903063109 85 360 3.0 13.0 0.00 0.00 0.00 61 1009.7
20260903061557 85 360 3.0 10.0 0.00 0.00 0.00 59 1009.7
20260903060051 85 360 4.0 11.0 0.00 0.00 0.00 59 1009.7
20260903054550 85 360 4.0 13.0 0.00 0.00 0.00 59 1009.6
20260903053108 86 360 5.0 11.0 0.00 0.00 0.00 57 1009.7
20260903051547 86 360 4.0 13.0 0.00 0.00 0.00 55 1009.7
20260903050055 87 360 2.0 9.0 0.00 0.00 0.00 55 1009.6
20260903044556 87 360 4.0 11.0 0.00 0.00 0.00 54 1009.5
20260903043047 88 360 2.0 10.0 0.00 0.00 0.00 53 1009.6
20260903041549 88 360 3.0 9.0 0.00 0.00 0.00 52 1009.6
20260903040043 89 360 2.0 8.0 0.00 0.00 0.00 52 1009.6
20260903034542 89 360 2.0 10.0 0.00 0.00 0.00 51 1009.6
20260903033040 89 360 4.0 10.0 0.00 0.00 0.00 50 1009.5
20260903031540 90 360 2.0 9.0 0.00 0.00 0.00 49 1009.6
20260903030040 90 360 2.0 8.0 0.00 0.00 0.00 47 1009.4
20260903024539 90 360 2.0 6.0 0.00 0.00 0.00 47 1009.4
20260903023038 90 360 2.0 6.0 0.00 0.00 0.00 48 1009.3
20260903021543 90 360 2.0 6.0 0.00 0.00 0.00 48 1009.1
20260903020037 91 360 2.0 5.0 0.00 0.00 0.00 48 1008.9
20260903014537 91 159 2.0 5.0 0.00 0.00 0.00 47 1008.8
20260903013035 92 148 1.0 6.0 0.00 0.00 0.00 46 1008.7
20260903011536 92 159 2.0 7.0 0.00 0.00 0.00 45 1008.4
20260903010035 93 146 1.0 5.0 0.00 0.00 0.00 45 1008.3
20260903004535 95 163 2.0 6.0 0.00 0.00 0.00 42 1008.2
20260903003033 96 154 2.0 8.0 0.00 0.00 0.00 41 1008.2
20260903001533 97 163 3.0 9.0 0.00 0.00 0.00 39 1008.1
20260903000035 97 175 3.0 8.0 0.00 0.00 0.00 38 1008.1
20260902234532 98 170 4.0 8.0 0.00 0.00 0.00 36 1008.1
20260902233031 98 161 3.0 8.0 0.00 0.00 0.00 35 1008.2
20260902231532 99 126 3.0 8.0 0.00 0.00 0.00 35 1008.2
20260902230029 99 138 3.0 8.0 0.00 0.00 0.00 36 1008.3
20260902224529 99 156 3.0 9.0 0.00 0.00 0.00 36 1008.3
20260902223027 100 137 3.0 10.0 0.00 0.00 0.00 37 1008.2
20260902221532 100 138 2.0 8.0 0.00 0.00 0.00 37 1008.4
20260902220039 100 225 2.0 9.0 0.00 0.00 0.00 37 1008.5
20260902214523 99 130 3.0 7.0 0.00 0.00 0.00 39 1008.6
20260902213021 100 123 4.0 9.0 0.00 0.00 0.00 38 1008.8
20260902211520 99 194 5.0 10.0 0.00 0.00 0.00 39 1008.9
20260902210039 100 74 3.0 11.0 0.00 0.00 0.00 39 1009.1
20260902204517 99 146 4.0 11.0 0.00 0.00 0.00 39 1009.4
20260902203014 99 128 3.0 14.0 0.00 0.00 0.00 41 1009.5
20260902201512 99 146 3.0 8.0 0.00 0.00 0.00 41 1009.7
20260902200011 99 144 5.0 10.0 0.00 0.00 0.00 39 1010.0
20260902194509 99 125 4.0 8.0 0.00 0.00 0.00 40 1010.2
20260902193005 99 158 2.0 8.0 0.00 0.00 0.00 40 1010.4
20260902191504 99 113 2.0 10.0 0.00 0.00 0.00 40 1010.5